Location: Peebles
(55.6412°N, 3.1714°W)
Time: 00:13:32
(UTC+00:00)

Meteor 1-24 Rocket - Visible Passes

Search period start: 28 January 2022 00:00
Search period end: 07 February 2022 00:00
Orbit: 790 x 927 km, 81.3° (Epoch: 27 January)

Date Brightness Start Highest point End Pass type
(mag) Time Alt. Az. Time Alt. Az. Time Alt. Az.
28 Jan 3.9 17:46:19 10° SSW 17:51:44 74° WNW 17:57:05 10° NNE visible
28 Jan 6.1 19:32:16 10° W 19:35:50 18° NW 19:39:23 10° N visible
29 Jan 3.8 17:36:42 10° SSW 17:42:07 76° WNW 17:47:28 10° NNE visible
29 Jan 6.1 19:22:34 10° W 19:26:11 18° NW 19:29:48 10° N visible
30 Jan 3.8 17:27:05 10° SSW 17:32:29 78° WNW 17:37:50 10° NNE visible
30 Jan 6.1 19:12:51 10° W 19:16:32 18° NW 19:20:12 10° N visible
31 Jan 3.8 17:17:28 10° SSW 17:22:52 81° WNW 17:28:13 10° NNE visible
31 Jan 6.1 19:03:09 10° W 19:06:53 19° NW 19:10:36 10° N visible
01 Feb 6.0 18:53:27 10° W 18:57:14 19° NW 19:01:01 10° N visible
02 Feb 6.0 18:43:45 10° W 18:47:35 20° NW 18:51:25 10° N visible
03 Feb 6.0 18:34:02 10° W 18:37:56 20° NW 18:41:49 10° N visible
04 Feb 5.9 18:24:20 10° WSW 18:28:17 21° NW 18:32:14 10° N visible
05 Feb 5.9 18:14:38 10° WSW 18:18:38 21° NW 18:22:38 10° N visible
06 Feb 5.9 18:04:56 10° WSW 18:08:59 21° NW 18:13:02 10° N visible
